Location: Arpaise
(41.0333°N, 14.7333°E)
Time: 07:29:55
(UTC+00:00)

Cosmos 1943 Rocket - Pass Details

Date: 05 July 2020
Orbit: 811 x 845 km, 71.0° (Epoch: 05 August)

Event Time Altitude Azimuth Distance (km) Brightness Sun altitude
Rises 22:55:20 0° 340° (NNW) 3,413 6.5 -26.3°
Reaches altitude 10° 22:57:52 10° 345° (NNW) 2,473 5.6 -26.3°
Maximum altitude 23:03:25 54° 62° (ENE) 1,017 2.7 -26.3°
Enters shadow 23:04:38 45° 104° (ESE) 1,129 2.7 -26.3°
